| time (UTC) | temp F | wind direction | speed knots | gust knots | rain 1hr in | rain 24hr in | rain mn in | humidity % | barometer mb |
| 20260508111545 | 38 | 165 | 0.0 | 2.6 | 0.00 | 0.00 | 0.00 | 89 | 1013.6 |
| 20260508110034 | 38 | 163 | 0.0 | 0.0 | 0.00 | 0.00 | 0.00 | 90 | 1013.5 |
| 20260508104536 | 37 | 177 | 0.0 | 0.0 | 0.00 | 0.00 | 0.00 | 90 | 1013.4 |
| 20260508103036 | 37 | 177 | 0.0 | 0.0 | 0.00 | 0.00 | 0.00 | 91 | 1013.3 |
| 20260508101533 | 36 | 173 | 0.0 | 0.9 | 0.00 | 0.00 | 0.00 | 91 | 1013.3 |
| 20260508100032 | 36 | 173 | 0.0 | 0.0 | 0.00 | 0.00 | 0.00 | 91 | 1013.2 |
| 20260508094530 | 36 | 173 | 0.0 | 0.0 | 0.00 | 0.00 | 0.00 | 90 | 1013.3 |
| 20260508093031 | 36 | 173 | 0.0 | 0.0 | 0.00 | 0.00 | 0.00 | 90 | 1013.3 |
| 20260508091527 | 37 | 173 | 0.0 | 0.0 | 0.00 | 0.00 | 0.00 | 89 | 1013.4 |
| 20260508090024 | 38 | 173 | 0.0 | 0.0 | 0.00 | 0.00 | 0.00 | 89 | 1013.4 |
| 20260508084523 | 38 | 173 | 0.0 | 0.0 | 0.00 | 0.00 | 0.00 | 88 | 1013.3 |
| 20260508083022 | 39 | 173 | 0.0 | 0.0 | 0.00 | 0.00 | 0.00 | 88 | 1013.4 |
| 20260508081523 | 40 | 173 | 0.0 | 0.0 | 0.00 | 0.00 | 0.00 | 88 | 1013.4 |
| 20260508080022 | 40 | 173 | 0.0 | 0.0 | 0.00 | 0.00 | 0.00 | 88 | 1013.5 |
| 20260508074524 | 39 | 173 | 0.0 | 0.0 | 0.00 | 0.00 | 0.00 | 88 | 1013.5 |
| 20260508073024 | 39 | 173 | 0.0 | 0.0 | 0.00 | 0.00 | 0.00 | 89 | 1013.6 |
| 20260508071520 | 39 | 173 | 0.0 | 0.0 | 0.00 | 0.00 | 0.00 | 89 | 1013.7 |
| 20260508070019 | 38 | 173 | 0.0 | 0.0 | 0.00 | 0.00 | 0.00 | 89 | 1013.6 |
| 20260508064525 | 38 | 173 | 0.0 | 0.0 | 0.00 | 0.00 | 0.00 | 89 | 1013.4 |
| 20260508063016 | 38 | 169 | 0.0 | 0.0 | 0.00 | 0.00 | 0.00 | 89 | 1013.2 |
| 20260508061516 | 38 | 172 | 0.0 | 0.0 | 0.00 | 0.00 | 0.00 | 89 | 1013.3 |
| 20260508060015 | 38 | 172 | 0.0 | 0.0 | 0.00 | 0.00 | 0.00 | 89 | 1013.4 |
| 20260508054513 | 38 | 172 | 0.0 | 0.0 | 0.00 | 0.00 | 0.00 | 88 | 1013.5 |
| 20260508053011 | 39 | 172 | 0.0 | 0.0 | 0.00 | 0.00 | 0.00 | 89 | 1013.8 |
| 20260508051520 | 39 | 172 | 0.0 | 0.9 | 0.00 | 0.00 | 0.00 | 88 | 1013.9 |
| 20260508050010 | 38 | 172 | 0.0 | 0.9 | 0.00 | 0.00 | 0.00 | 88 | 1013.8 |
| 20260508044508 | 38 | 323 | 0.0 | 0.0 | 0.00 | 0.00 | 0.00 | 88 | 1014.0 |
| 20260508043017 | 39 | 323 | 0.0 | 0.0 | 0.00 | 0.00 | 0.00 | 87 | 1013.8 |
| 20260508041507 | 39 | 323 | 0.0 | 0.0 | 0.00 | 0.00 | 0.00 | 87 | 1013.9 |
| 20260508040002 | 39 | 323 | 0.0 | 0.0 | 0.00 | 0.00 | 0.00 | 86 | 1013.7 |
| 20260508034501 | 39 | 323 | 0.0 | 0.0 | 0.00 | 0.00 | 0.00 | 84 | 1013.6 |
| 20260508033103 | 40 | 323 | 0.0 | 0.0 | 0.00 | 0.00 | 0.00 | 82 | 1013.6 |
| 20260508031603 | 41 | 323 | 0.0 | 0.0 | 0.00 | 0.00 | 0.00 | 79 | 1013.6 |
| 20260508030059 | 42 | 323 | 0.0 | 0.0 | 0.00 | 0.00 | 0.00 | 78 | 1013.6 |
| 20260508024605 | 42 | 321 | 0.0 | 0.0 | 0.00 | 0.00 | 0.00 | 75 | 1013.7 |
| 20260508023058 | 43 | 322 | 0.0 | 0.0 | 0.00 | 0.00 | 0.00 | 71 | 1013.6 |
| 20260508021609 | 44 | 322 | 0.0 | 0.0 | 0.00 | 0.00 | 0.00 | 69 | 1013.5 |
| 20260508020059 | 45 | 321 | 0.0 | 0.9 | 0.00 | 0.00 | 0.00 | 63 | 1013.5 |
| 20260508014559 | 46 | 321 | 0.0 | 0.0 | 0.00 | 0.00 | 0.00 | 60 | 1013.4 |
| 20260508013055 | 46 | 321 | 0.0 | 0.0 | 0.00 | 0.00 | 0.00 | 59 | 1013.2 |
| 20260508011607 | 46 | 322 | 0.0 | 0.0 | 0.00 | 0.00 | 0.00 | 59 | 1013.1 |
| 20260508010055 | 47 | 321 | 0.0 | 0.0 | 0.00 | 0.00 | 0.00 | 58 | 1012.9 |
| 20260508004558 | 48 | 321 | 0.0 | 0.0 | 0.00 | 0.00 | 0.00 | 55 | 1012.8 |
| 20260508003053 | 49 | 321 | 0.0 | 0.0 | 0.00 | 0.00 | 0.00 | 55 | 1012.7 |
| 20260508001553 | 50 | 321 | 0.0 | 0.0 | 0.00 | 0.00 | 0.00 | 53 | 1012.7 |
| 20260508000051 | 52 | 321 | 0.0 | 1.7 | 0.00 | 0.00 | 0.00 | 50 | 1012.6 |
| 20260507234555 | 53 | 250 | 0.0 | 3.5 | 0.00 | 0.00 | 0.00 | 49 | 1012.5 |
| 20260507233050 | 54 | 248 | 0.0 | 1.7 | 0.00 | 0.00 | 0.00 | 48 | 1012.3 |
| 20260507231552 | 55 | 255 | 0.0 | 4.3 | 0.00 | 0.00 | 0.00 | 46 | 1012.2 |
| 20260507230049 | 55 | 291 | 0.0 | 4.3 | 0.00 | 0.00 | 0.00 | 43 | 1012.5 |
| 20260507224549 | 56 | 276 | 0.0 | 3.5 | 0.00 | 0.00 | 0.00 | 46 | 1012.4 |
| 20260507223053 | 55 | 349 | 2.6 | 6.1 | 0.00 | 0.00 | 0.00 | 49 | 1012.4 |
| 20260507221547 | 57 | 286 | 1.7 | 8.7 | 0.00 | 0.00 | 0.00 | 44 | 1012.4 |
| 20260507220046 | 58 | 291 | 3.5 | 7.8 | 0.00 | 0.00 | 0.00 | 40 | 1012.2 |
| 20260507214545 | 59 | 294 | 1.7 | 7.8 | 0.00 | 0.00 | 0.00 | 45 | 1012.0 |
| 20260507213048 | 58 | 263 | 2.6 | 7.8 | 0.00 | 0.00 | 0.00 | 47 | 1011.7 |
| 20260507211645 | 58 | 316 | 1.7 | 8.7 | 0.00 | 0.00 | 0.00 | 46 | 1011.6 |
| 20260507210045 | 59 | 276 | 2.6 | 7.0 | 0.00 | 0.00 | 0.00 | 44 | 1011.2 |
| 20260507204545 | 59 | 303 | 1.7 | 9.6 | 0.00 | 0.00 | 0.00 | 43 | 1011.1 |
| 20260507203044 | 60 | 258 | 0.0 | 2.6 | 0.00 | 0.00 | 0.00 | 42 | 1011.3 |
| 20260507201540 | 60 | 293 | 0.9 | 7.0 | 0.00 | 0.00 | 0.00 | 43 | 1011.2 |
| 20260507200039 | 61 | 253 | 0.9 | 5.2 | 0.00 | 0.00 | 0.00 | 41 | 1011.4 |
| 20260507194537 | 61 | 256 | 1.7 | 4.3 | 0.00 | 0.00 | 0.00 | 38 | 1011.4 |
| 20260507193047 | 62 | 179 | 0.0 | 7.8 | 0.00 | 0.00 | 0.00 | 40 | 1011.6 |
| 20260507191535 | 61 | 108 | 1.7 | 5.2 | 0.00 | 0.00 | 0.00 | 42 | 1011.5 |
| 20260507190034 | 61 | 318 | 1.7 | 7.8 | 0.00 | 0.00 | 0.00 | 41 | 1011.7 |
| 20260507184530 | 61 | 134 | 3.5 | 7.8 | 0.00 | 0.00 | 0.00 | 45 | 1011.8 |
| 20260507183034 | 60 | 286 | 2.6 | 8.7 | 0.00 | 0.00 | 0.00 | 41 | 1011.8 |
| 20260507181528 | 60 | 113 | 1.7 | 6.1 | 0.00 | 0.00 | 0.00 | 46 | 1011.9 |
| 20260507180027 | 60 | 239 | 0.0 | 5.2 | 0.00 | 0.00 | 0.00 | 44 | 1012.0 |
| 20260507174524 | 60 | 276 | 0.9 | 7.8 | 0.00 | 0.00 | 0.00 | 50 | 1012.1 |
| 20260507173035 | 60 | 204 | 1.7 | 5.2 | 0.00 | 0.00 | 0.00 | 48 | 1012.1 |
| 20260507171521 | 60 | 127 | 0.9 | 5.2 | 0.00 | 0.00 | 0.00 | 48 | 1012.2 |
| 20260507170020 | 59 | 267 | 1.7 | 8.7 | 0.00 | 0.00 | 0.00 | 47 | 1012.4 |
| 20260507164519 | 60 | 309 | 1.7 | 7.0 | 0.00 | 0.00 | 0.00 | 47 | 1012.5 |
| 20260507163015 | 59 | 145 | 1.7 | 7.8 | 0.00 | 0.00 | 0.00 | 47 | 1012.5 |
| 20260507161521 | 59 | 290 | 0.0 | 8.7 | 0.00 | 0.00 | 0.00 | 46 | 1012.6 |
| 20260507160013 | 58 | 291 | 0.9 | 5.2 | 0.00 | 0.00 | 0.00 | 42 | 1012.6 |
| 20260507154518 | 58 | 286 | 0.9 | 7.0 | 0.00 | 0.00 | 0.00 | 44 | 1012.7 |
| 20260507153013 | 58 | 151 | 2.6 | 7.0 | 0.00 | 0.00 | 0.00 | 43 | 1012.7 |
| 20260507151510 | 58 | 181 | 0.9 | 6.1 | 0.00 | 0.00 | 0.00 | 47 | 1012.6 |
| 20260507150011 | 58 | 15 | 0.9 | 6.1 | 0.00 | 0.00 | 0.00 | 46 | 1012.7 |
| 20260507144618 | 57 | 291 | 2.6 | 7.0 | 0.00 | 0.00 | 0.00 | 50 | 1012.9 |
| 20260507143008 | 57 | 110 | 0.0 | 5.2 | 0.00 | 0.00 | 0.00 | 49 | 1012.9 |
| 20260507141505 | 56 | 236 | 1.7 | 6.1 | 0.00 | 0.00 | 0.00 | 49 | 1013.1 |
| 20260507140006 | 55 | 273 | 0.9 | 3.5 | 0.00 | 0.00 | 0.00 | 58 | 1013.3 |
| 20260507134601 | 54 | 92 | 0.0 | 0.0 | 0.00 | 0.00 | 0.00 | 62 | 1013.4 |
| 20260507133058 | 54 | 288 | 0.0 | 0.0 | 0.00 | 0.00 | 0.00 | 67 | 1013.6 |
| 20260507131554 | 54 | 262 | 0.0 | 0.0 | 0.00 | 0.00 | 0.00 | 71 | 1013.7 |
| 20260507130055 | 51 | 228 | 0.0 | 0.0 | 0.00 | 0.00 | 0.00 | 73 | 1013.7 |
| 20260507124546 | 50 | 293 | 0.0 | 0.9 | 0.00 | 0.01 | 0.00 | 77 | 1013.6 |
| 20260507123047 | 49 | 130 | 0.0 | 1.7 | 0.00 | 0.01 | 0.00 | 85 | 1013.7 |
| 20260507121539 | 46 | 226 | 0.0 | 0.0 | 0.00 | 0.01 | 0.00 | 90 | 1013.7 |
| 20260507120039 | 43 | 248 | 0.0 | 0.0 | 0.00 | 0.01 | 0.00 | 92 | 1013.6 |
| 20260507114537 | 40 | 248 | 0.0 | 0.0 | 0.00 | 0.01 | 0.00 | 93 | 1013.6 |
| 20260507113036 | 38 | 248 | 0.0 | 0.0 | 0.00 | 0.01 | 0.00 | 93 | 1013.5 |